Marion, IN

3:10 PM EDT on September 26, 2016 (GMT -0400)
Marion Municipal

Weather History for KMZZ - March, 2013

Change the Weather History Date:

Saturday, March 30, 2013

  Actual Average (KMIE) Record (KMIE)
Temperature  
Mean Temperature 41 °F 45 °F  
Max Temperature 54 °F 55 °F 80 °F (1986)
Min Temperature 28 °F 35 °F 18 °F (1969)
Degree Days  
Heating Degree Days 24 20  
Month to date heating degree days 767  
Since 1 July heating degree days 5150  
Cooling Degree Days 0 0  
Month to date cooling degree days 0  
Year to date cooling degree days 0  
Moisture  
Dew Point 30 °F    
Average Humidity 64    
Maximum Humidity 90    
Minimum Humidity 39    
Precipitation  
Precipitation 0.00 in 0.11 in 0.68 in (1974)
Month to date precipitation 2.84  
Year to date precipitation 7.38  
Sea Level Pressure  
Sea Level Pressure 30.12 in    
Wind  
Wind Speed 3 mph (SSW)    
Max Wind Speed 12 mph    
Max Gust Speed 18 mph    
Visibility 10 miles    
Events      
T = Trace of Precipitation, MM = Missing Value Source: NWS Daily Summary

Daily Weather History Graph

Daily Weather History Graph

Search for Another Location

Airport or City:

Trip Planner

Search our weather history database for the weather conditions in past years. The results will help you decide how hot, cold, wet, or windy it might be!

Date:

Astronomy

Mar. 30, 2013 Rise Set
Actual Time 7:29 AM EDT 8:05 PM EDT
Civil Twilight 7:01 AM EDT 8:33 PM EDT
Nautical Twilight 6:29 AM EDT 9:05 PM EDT
Astronomical Twilight 5:56 AM EDT 9:38 PM EDT
Moon No Moon Rise 9:23 AM EDT (3/30)
Length of Visible Light 13h 31m
Length of Day
12h 36m
Waning Gibbous, 86% of the Moon is Illuminated
Mar 30
Waning Gibbous
Apr 3
Last Quarter
Apr 10
New
Apr 18
First Quarter
Apr 25
Full

Hourly Weather History & Observations

Time (EDT) Temp. Windchill Dew Point Humidity Pressure Visibility Wind Dir Wind Speed Gust Speed Precip Events Conditions
12:15 AM 35.8 °F - 28.6 °F 75% 30.24 in 10.0 mi Calm Calm - N/A   Clear
12:35 AM 35.6 °F - 28.6 °F 76% 30.24 in 10.0 mi Calm Calm - N/A   Clear
12:55 AM 35.6 °F - 27.7 °F 73% 30.23 in 10.0 mi Calm Calm - N/A   Clear
1:15 AM 35.2 °F 32.4 °F 27.0 °F 72% 30.23 in 10.0 mi SW 3.5 mph - N/A   Clear
1:35 AM 33.8 °F - 28.0 °F 79% 30.23 in 10.0 mi Calm Calm - N/A   Clear
1:55 AM 32.9 °F - 27.7 °F 81% 30.23 in 10.0 mi Calm Calm - N/A   Clear
2:15 AM 32.2 °F - 27.7 °F 83% 30.23 in 10.0 mi Calm Calm - N/A   Clear
2:35 AM 32.2 °F - 26.4 °F 79% 30.23 in 10.0 mi Calm Calm - N/A   Clear
2:55 AM 31.8 °F - 26.4 °F 80% 30.22 in 10.0 mi Calm Calm - N/A   Clear
3:15 AM 31.8 °F - 26.1 °F 79% 30.22 in 10.0 mi Calm Calm - N/A   Clear
3:35 AM 31.5 °F - 26.2 °F 81% 30.22 in 10.0 mi Calm Calm - N/A   Clear
3:55 AM 31.5 °F - 27.0 °F 83% 30.22 in 10.0 mi Calm Calm - N/A   Clear
4:15 AM 31.1 °F - 26.1 °F 82% 30.22 in 10.0 mi Calm Calm - N/A   Clear
4:35 AM 30.6 °F - 26.1 °F 83% 30.21 in 10.0 mi Calm Calm - N/A   Clear
4:55 AM 30.0 °F - 25.7 °F 84% 30.21 in 10.0 mi Calm Calm - N/A   Clear
5:15 AM 30.2 °F - 25.3 °F 82% 30.21 in 10.0 mi Calm Calm - N/A   Clear
5:35 AM 29.8 °F - 25.7 °F 85% 30.21 in 10.0 mi Calm Calm - N/A   Clear
5:55 AM 29.7 °F - 26.1 °F 86% 30.22 in 10.0 mi Calm Calm - N/A   Clear
6:15 AM 29.3 °F - 26.6 °F 90% 30.21 in 7.0 mi Calm Calm - N/A   Clear
6:35 AM 28.9 °F - 26.2 °F 90% 30.21 in 10.0 mi Calm Calm - N/A   Clear
6:55 AM 28.6 °F 24.8 °F 25.9 °F 90% 30.22 in 10.0 mi South 3.5 mph - N/A   Clear
7:15 AM 29.1 °F - 26.2 °F 89% 30.23 in 7.0 mi Calm Calm - N/A   Clear
7:35 AM 28.9 °F 25.2 °F 25.9 °F 88% 30.23 in 7.0 mi SSE 3.5 mph - N/A   Clear
7:55 AM 29.1 °F - 25.9 °F 88% 30.23 in 7.0 mi Calm Calm - N/A   Clear
8:15 AM 29.1 °F - 26.1 °F 88% 30.22 in 7.0 mi Calm Calm - N/A   Clear
8:35 AM 30.2 °F - 27.0 °F 88% 30.21 in 7.0 mi Calm Calm - N/A   Clear
8:55 AM 32.0 °F - 27.7 °F 84% 30.22 in 7.0 mi Calm Calm - N/A   Clear
9:15 AM 34.5 °F 30.4 °F 28.8 °F 79% 30.20 in 7.0 mi SSE 4.6 mph - N/A   Clear
9:35 AM 37.4 °F 34.9 °F 28.4 °F 70% 30.21 in 10.0 mi SE 3.5 mph - N/A   Clear
9:55 AM 39.7 °F 36.5 °F 28.6 °F 64% 30.20 in 10.0 mi South 4.6 mph - N/A   Clear
10:15 AM 41.5 °F 38.6 °F 29.8 °F 63% 30.21 in 10.0 mi South 4.6 mph - N/A   Clear
10:35 AM 43.3 °F 39.9 °F 31.1 °F 62% 30.20 in 10.0 mi South 5.8 mph - N/A   Clear
10:55 AM 45.1 °F 41.4 °F 32.5 °F 61% 30.19 in 10.0 mi SSW 6.9 mph - N/A   Clear
11:15 AM 46.8 °F - 33.6 °F 60% 30.19 in 10.0 mi SSW 9.2 mph - N/A   Clear
11:35 AM 48.2 °F - 32.7 °F 55% 30.18 in 10.0 mi SSW 9.2 mph - N/A   Clear
11:55 AM 49.3 °F - 31.8 °F 51% 30.17 in 10.0 mi SSW 9.2 mph - N/A   Clear
12:15 PM 50.2 °F - 31.1 °F 48% 30.16 in 10.0 mi SSW 5.8 mph 9.2 mph N/A   Clear
12:35 PM 51.1 °F - 28.4 °F 42% 30.16 in 7.0 mi SW 8.1 mph - N/A   Clear
12:55 PM 51.1 °F - 29.8 °F 44% 30.15 in 10.0 mi SSW 6.9 mph - N/A   Clear
1:15 PM 52.0 °F - 30.2 °F 43% 30.14 in 7.0 mi SSW 10.4 mph - N/A   Clear
1:35 PM 52.3 °F - 30.0 °F 42% 30.13 in 10.0 mi South 9.2 mph - N/A   Clear
1:55 PM 52.9 °F - 30.6 °F 43% 30.12 in 10.0 mi SW 8.1 mph - N/A   Clear
2:15 PM 53.1 °F - 30.4 °F 42% 30.11 in 7.0 mi SSW 3.5 mph - N/A   Clear
2:35 PM 53.6 °F - 29.7 °F 40% 30.11 in 10.0 mi West 4.6 mph - N/A   Clear
2:55 PM 54.1 °F - 30.4 °F 40% 30.10 in 10.0 mi SSW 5.8 mph 17.3 mph N/A   Clear
3:15 PM 54.5 °F - 30.6 °F 40% 30.08 in 10.0 mi West 8.1 mph - N/A   Clear
3:35 PM 54.3 °F - 29.8 °F 39% 30.07 in 10.0 mi South 5.8 mph - N/A   Clear
3:55 PM 54.3 °F - 31.3 °F 42% 30.06 in 10.0 mi South 11.5 mph 18.4 mph N/A   Clear
4:15 PM 54.0 °F - 31.5 °F 42% 30.05 in 10.0 mi SSW 8.1 mph - N/A   Clear
4:35 PM 53.8 °F - 31.8 °F 43% 30.04 in 10.0 mi SSW 11.5 mph - N/A   Clear
4:55 PM 53.4 °F - 32.0 °F 44% 30.04 in 10.0 mi SSW 11.5 mph 16.1 mph N/A   Clear
5:15 PM 53.6 °F - 32.2 °F 44% 30.03 in 10.0 mi SSW 8.1 mph - N/A   Clear
5:35 PM 53.4 °F - 32.5 °F 45% 30.02 in 10.0 mi SSW 11.5 mph - N/A   Clear
5:55 PM 52.9 °F - 32.5 °F 46% 30.02 in 10.0 mi SSW 8.1 mph - N/A   Clear
6:15 PM 53.4 °F - 32.5 °F 45% 30.02 in 10.0 mi SSW 10.4 mph - N/A   Clear
6:35 PM 53.1 °F - 32.9 °F 46% 30.01 in 10.0 mi SSW 5.8 mph - N/A   Clear
6:55 PM 52.7 °F - 33.8 °F 49% 30.00 in 10.0 mi SSW 5.8 mph - N/A   Clear
7:15 PM 52.3 °F - 33.4 °F 49% 30.00 in 10.0 mi South 3.5 mph - N/A   Clear
7:35 PM 51.6 °F - 34.3 °F 52% 29.99 in 10.0 mi Calm Calm - N/A   Clear
7:55 PM 50.9 °F - 34.7 °F 54% 29.98 in 10.0 mi Calm Calm - N/A   Clear
8:15 PM 50.2 °F - 34.7 °F 55% 29.97 in 10.0 mi Calm Calm - N/A   Clear
8:35 PM 49.1 °F - 35.2 °F 59% 29.97 in 10.0 mi Calm Calm - N/A   Clear
8:55 PM 48.4 °F - 35.6 °F 61% 29.96 in 10.0 mi Calm Calm - N/A   Clear
9:15 PM 47.1 °F - 35.4 °F 64% 29.96 in 10.0 mi ESE 4.6 mph - N/A   Clear
9:35 PM 46.6 °F - 35.4 °F 65% 29.95 in 10.0 mi SE 4.6 mph - N/A   Scattered Clouds
9:55 PM 46.8 °F - 35.1 °F 64% 29.94 in 10.0 mi SE 5.8 mph - N/A   Scattered Clouds
10:15 PM 46.8 °F - 34.7 °F 63% 29.94 in 10.0 mi SSE 5.8 mph - N/A   Scattered Clouds
10:35 PM 47.3 °F - 34.2 °F 60% 29.95 in 10.0 mi South 4.6 mph - N/A   Mostly Cloudy
10:55 PM 46.6 °F - 34.5 °F 63% 29.95 in 10.0 mi South 3.5 mph - N/A   Scattered Clouds
11:15 PM 45.3 °F 44.0 °F 34.9 °F 67% 29.94 in 10.0 mi South 3.5 mph - N/A   Clear
11:35 PM 45.3 °F 44.0 °F 34.5 °F 66% 29.94 in 10.0 mi SSW 3.5 mph - N/A   Clear
11:55 PM 44.4 °F 42.0 °F 34.5 °F 68% 29.94 in 10.0 mi WSW 4.6 mph - N/A   Scattered Clouds